Orbital Elements at Epoch 2459000.5 (2020-May-31.0) TDB
Reference: JPL 20 (heliocentric ecliptic J2000)
Element | Value | Uncertainty (1-sigma) | Units |
e | .009036501016833093 | 6.0488e-08 | |
a | 2.918349699255259 | 1.8272e-08 | au |
q | 2.891978029230464 | 1.808e-07 | au |
i | 2.223566432781303 | 8.7705e-06 | deg |
node | 3.642987008706065 | 8.841e-05 | deg |
peri | 54.17128287823164 | 0.00044911 | deg |
M | 359.1610198227327 | 0.00043921 | deg |
tp | 2459004.743787435927 (2020-Jun-04.24378744) | 0.0022217 | TDB |
period | 1820.976845853605 4.99 | 1.7102e-05 4.682e-08 | d yr |
n | .1976960886788462 | 1.8567e-09 | deg/d |
Q | 2.944721369280054 | 1.8438e-08 | au |
|
| | Orbit Determination Parameters
Additional Information
|